Aviador C. Campos Airport

Jump to: basic info | weather | frequencies | runways | comments

Related pages: nearby airports | nearby navaids | notams | map

Basic information (top)

Codes: CPC SAZY CHP
Location: lon -40.075401, lat -71.137299, elev 2,569 ft / 783 m msl
Status: medium_airport

Weather (top)

Current conditions (rec'd 2014/06/20 15:30Z):

SAZY 201530Z 00000KT 9999 SCT010 02/00 Q1012

Airport forecast (rec'd 2014/07/18 06:15Z):

TAF SAZY 180500Z 1806/1906 25010KT 9999 BKN035 TX08/1818Z TN02/1810Z

Frequencies (top)

Verify before use: may be inaccurate or out of date.

GND: 121.7 MHz (GND)
TWR: 119.6 MHz (CHAPELCO TWR)

Runways (top)

6/24: 8,202 x 148 ft (2,500 x 45 m) — paved — not lighted

Latest comments (top)

No comments yet for Aviador C. Campos Airport

More... (top)

See also NOTAMs and nearby airports and navaids, or visit the Aviador C. Campos Airport page at the main OurAirports website..